Location: *
(57.8420°S, 159.8600°W)
Time: 04:07:01
(UTC+00:00)

Nadezhda 4 Rocket - Pass Details

Date: 18 May 2021
Orbit: 949 x 993 km, 82.9° (Epoch: 23 June)

Event Time Altitude Azimuth Distance (km) Brightness Sun altitude
Rises 03:56:15 0° 351° (N) 3,633 7.4 -11.4°
Reaches altitude 10° 03:58:44 10° 350° (N) 2,699 6.7 -11.7°
Maximum altitude 04:04:56 90° 53° (NE) 984 4.0 -12.5°
Drops below altitude 10° 04:11:16 10° 167° (SSE) 2,756 6.1 -13.3°
Sets 04:13:49 0° 167° (SSE) 3,715 6.8 -13.6°
